Time,TemperatureF,DewpointF,PressureIn,WindDirection,WindDirectionDegrees,WindSpeedMPH,WindSpeedGustMPH,Humidity,HourlyPrecipIn,Conditions,Clouds,dailyrainin,SoftwareType,DateUTC
2013-01-08 00:05:00,50.1,50.1,30.30,NNW,347,0.0,0.0,100,0.00,,,0.01,Wunderground v.1.15,2013-01-08 08:05:00,
2013-01-08 00:10:00,50.1,50.1,30.30,NE,39,0.0,0.0,100,0.00,,,0.01,Wunderground v.1.15,2013-01-08 08:10:00,
2013-01-08 00:15:00,50.1,50.1,30.30,NE,38,0.0,0.0,100,0.00,,,0.01,Wunderground v.1.15,2013-01-08 08:15:00,
2013-01-08 00:20:00,50.1,50.1,30.30,SE,126,0.0,1.0,100,0.00,,,0.01,Wunderground v.1.15,2013-01-08 08:20:00,
2013-01-08 00:25:00,50.2,50.2,30.30,South,172,0.0,1.0,100,0.00,,,0.01,Wunderground v.1.15,2013-01-08 08:25:00,
2013-01-08 00:35:00,50.1,50.1,30.29,East,94,0.0,0.0,100,0.00,,,0.01,Wunderground v.1.15,2013-01-08 08:35:00,
2013-01-08 00:40:00,50.0,50.0,30.28,East,94,0.0,0.0,100,0.00,,,0.01,Wunderground v.1.15,2013-01-08 08:40:00,
2013-01-08 00:45:00,50.0,50.0,30.28,WSW,250,0.0,0.0,100,0.00,,,0.01,Wunderground v.1.15,2013-01-08 08:45:00,
2013-01-08 00:50:00,49.9,49.9,30.28,NW,305,0.0,0.0,100,0.00,,,0.01,Wunderground v.1.15,2013-01-08 08:50:00,
2013-01-08 00:55:00,49.9,49.9,30.28,WNW,297,0.0,0.0,100,0.00,,,0.01,Wunderground v.1.15,2013-01-08 08:55:00,
2013-01-08 01:00:00,49.9,49.9,30.27,WNW,300,0.0,1.0,100,0.00,,,0.01,Wunderground v.1.15,2013-01-08 09:00:00,
2013-01-08 01:10:00,49.9,49.9,30.27,SE,133,0.0,0.0,100,0.00,,,0.01,Wunderground v.1.15,2013-01-08 09:10:00,
2013-01-08 01:15:00,49.8,49.8,30.27,West,278,0.0,0.0,100,0.00,,,0.01,Wunderground v.1.15,2013-01-08 09:15:00,
2013-01-08 01:20:00,49.8,49.8,30.27,West,274,0.0,0.0,100,0.00,,,0.01,Wunderground v.1.15,2013-01-08 09:20:00,
2013-01-08 01:25:00,49.9,49.9,30.27,East,94,0.0,0.0,100,0.00,,,0.01,Wunderground v.1.15,2013-01-08 09:25:00,
2013-01-08 01:30:00,49.9,49.9,30.27,WNW,297,1.0,1.0,100,0.00,,,0.01,Wunderground v.1.15,2013-01-08 09:30:00,
2013-01-08 01:35:00,49.8,49.8,30.27,NW,311,1.0,1.0,100,0.00,,,0.01,Wunderground v.1.15,2013-01-08 09:35:00,
2013-01-08 01:45:00,49.7,49.7,30.28,SW,235,0.0,0.0,100,0.00,,,0.01,Wunderground v.1.15,2013-01-08 09:45:00,
2013-01-08 01:50:00,49.7,49.7,30.28,West,259,0.0,0.0,100,0.00,,,0.01,Wunderground v.1.15,2013-01-08 09:50:00,
2013-01-08 01:55:00,49.8,49.8,30.28,North,356,0.0,0.0,100,0.00,,,0.01,Wunderground v.1.15,2013-01-08 09:55:00,
2013-01-08 02:00:00,49.8,49.8,30.28,NW,321,0.0,0.0,100,0.00,,,0.01,Wunderground v.1.15,2013-01-08 10:00:00,
2013-01-08 02:05:00,49.7,49.7,30.28,WNW,297,0.0,0.0,100,0.00,,,0.01,Wunderground v.1.15,2013-01-08 10:05:00,
2013-01-08 02:10:00,49.8,49.8,30.28,NNW,340,0.0,1.0,100,0.00,,,0.01,Wunderground v.1.15,2013-01-08 10:10:00,
2013-01-08 02:20:00,49.8,49.8,30.28,WNW,300,0.0,0.0,100,0.00,,,0.02,Wunderground v.1.15,2013-01-08 10:20:00,
2013-01-08 02:25:00,49.8,49.8,30.28,WNW,300,0.0,0.0,100,0.00,,,0.02,Wunderground v.1.15,2013-01-08 10:25:00,
2013-01-08 02:30:00,49.8,49.8,30.27,WSW,247,0.0,0.0,100,0.00,,,0.02,Wunderground v.1.15,2013-01-08 10:30:00,
2013-01-08 02:35:00,49.8,49.8,30.27,NW,316,0.0,0.0,100,0.00,,,0.02,Wunderground v.1.15,2013-01-08 10:35:00,
2013-01-08 02:40:00,49.9,49.9,30.27,NW,307,1.0,4.0,100,0.00,,,0.02,Wunderground v.1.15,2013-01-08 10:40:00,
2013-01-08 02:45:00,49.9,49.9,30.28,NW,307,1.0,4.0,100,0.00,,,0.03,Wunderground v.1.15,2013-01-08 10:45:00,
2013-01-08 02:55:00,49.9,49.9,30.27,NW,317,1.0,1.0,100,0.00,,,0.03,Wunderground v.1.15,2013-01-08 10:55:00,
2013-01-08 03:00:00,50.0,50.0,30.27,NW,320,1.0,1.0,100,0.00,,,0.03,Wunderground v.1.15,2013-01-08 11:00:00,
2013-01-08 03:05:00,50.0,50.0,30.27,NW,320,0.0,1.0,100,0.00,,,0.03,Wunderground v.1.15,2013-01-08 11:05:00,
2013-01-08 03:10:00,50.0,50.0,30.27,NW,319,0.0,0.0,100,0.00,,,0.03,Wunderground v.1.15,2013-01-08 11:10:00,
2013-01-08 03:15:00,50.1,50.1,30.27,SSW,207,1.0,1.0,100,0.00,,,0.03,Wunderground v.1.15,2013-01-08 11:15:00,
2013-01-08 03:20:00,50.2,50.2,30.27,NNW,329,1.0,1.0,100,0.00,,,0.03,Wunderground v.1.15,2013-01-08 11:20:00,
2013-01-08 03:30:00,50.1,50.1,30.26,NW,321,0.0,0.0,100,0.00,,,0.03,Wunderground v.1.15,2013-01-08 11:30:00,
2013-01-08 03:35:00,50.1,50.1,30.26,WNW,300,0.0,0.0,100,0.00,,,0.03,Wunderground v.1.15,2013-01-08 11:35:00,
2013-01-08 03:40:00,50.1,50.1,30.26,WNW,289,0.0,2.0,100,0.00,,,0.03,Wunderground v.1.15,2013-01-08 11:40:00,
2013-01-08 03:45:00,50.2,50.2,30.26,WSW,252,1.0,2.0,100,0.00,,,0.03,Wunderground v.1.15,2013-01-08 11:45:00,
2013-01-08 03:50:00,50.2,50.2,30.26,NNE,13,1.0,1.0,100,0.00,,,0.03,Wunderground v.1.15,2013-01-08 11:50:00,
2013-01-08 03:55:00,50.2,50.2,30.25,WNW,297,1.0,1.0,100,0.00,,,0.03,Wunderground v.1.15,2013-01-08 11:55:00,
2013-01-08 04:05:00,50.2,50.2,30.25,WNW,295,1.0,1.0,100,0.00,,,0.03,Wunderground v.1.15,2013-01-08 12:05:00,
2013-01-08 04:10:00,50.2,50.2,30.25,West,278,1.0,1.0,100,0.00,,,0.03,Wunderground v.1.15,2013-01-08 12:10:00,
2013-01-08 04:15:00,50.2,50.2,30.25,NNW,333,0.0,3.0,100,0.00,,,0.03,Wunderground v.1.15,2013-01-08 12:15:00,
2013-01-08 04:20:00,50.2,50.2,30.24,NNW,328,1.0,1.0,100,0.00,,,0.03,Wunderground v.1.15,2013-01-08 12:20:00,
2013-01-08 04:25:00,50.2,50.2,30.24,SW,231,0.0,1.0,100,0.00,,,0.03,Wunderground v.1.15,2013-01-08 12:25:00,
2013-01-08 04:30:00,50.3,50.3,30.24,North,356,1.0,1.0,100,0.00,,,0.03,Wunderground v.1.15,2013-01-08 12:30:00,
2013-01-08 04:40:00,50.2,50.2,30.24,NNW,328,0.0,2.0,100,0.00,,,0.03,Wunderground v.1.15,2013-01-08 12:40:00,
2013-01-08 04:45:00,50.2,50.2,30.24,WNW,295,0.0,2.0,100,0.00,,,0.03,Wunderground v.1.15,2013-01-08 12:45:00,
2013-01-08 04:55:00,50.2,50.2,30.24,NNW,328,1.0,2.0,100,0.00,,,0.03,Wunderground v.1.15,2013-01-08 12:55:00,
2013-01-08 05:00:00,50.1,50.1,30.23,NW,311,1.0,1.0,100,0.00,,,0.03,Wunderground v.1.15,2013-01-08 13:00:00,
2013-01-08 05:05:00,50.2,50.2,30.23,NW,319,1.0,1.0,100,0.00,,,0.03,Wunderground v.1.15,2013-01-08 13:05:00,
2013-01-08 05:10:00,50.2,50.2,30.23,NW,323,1.0,1.0,100,0.00,,,0.03,Wunderground v.1.15,2013-01-08 13:10:00,
2013-01-08 05:15:00,50.2,50.2,30.23,NW,311,1.0,1.0,100,0.00,,,0.03,Wunderground v.1.15,2013-01-08 13:15:00,
2013-01-08 05:20:00,50.2,50.2,30.23,NW,321,0.0,0.0,100,0.00,,,0.03,Wunderground v.1.15,2013-01-08 13:20:00,
2013-01-08 05:30:00,50.2,50.2,30.23,WNW,290,1.0,1.0,100,0.00,,,0.03,Wunderground v.1.15,2013-01-08 13:30:00,
2013-01-08 05:35:00,50.3,50.3,30.23,SSW,209,1.0,1.0,100,0.00,,,0.03,Wunderground v.1.15,2013-01-08 13:35:00,
2013-01-08 05:40:00,50.3,50.3,30.23,WNW,297,1.0,1.0,100,0.00,,,0.03,Wunderground v.1.15,2013-01-08 13:40:00,
2013-01-08 05:45:00,50.3,50.3,30.24,North,359,1.0,1.0,100,0.00,,,0.03,Wunderground v.1.15,2013-01-08 13:45:00,
2013-01-08 05:50:00,50.3,50.3,30.24,NW,312,1.0,1.0,100,0.00,,,0.03,Wunderground v.1.15,2013-01-08 13:50:00,
2013-01-08 06:00:00,50.3,50.3,30.24,NNW,329,0.0,2.0,100,0.00,,,0.03,Wunderground v.1.15,2013-01-08 14:00:00,
2013-01-08 06:05:00,50.3,50.3,30.24,NW,318,1.0,2.0,100,0.00,,,0.03,Wunderground v.1.15,2013-01-08 14:05:00,
2013-01-08 06:10:00,50.3,50.3,30.24,NW,313,1.0,1.0,100,0.00,,,0.03,Wunderground v.1.15,2013-01-08 14:10:00,
2013-01-08 06:15:00,50.3,50.3,30.24,WNW,285,1.0,1.0,100,0.00,,,0.03,Wunderground v.1.15,2013-01-08 14:15:00,
2013-01-08 06:20:00,50.3,50.3,30.24,NW,314,1.0,1.0,100,0.00,,,0.03,Wunderground v.1.15,2013-01-08 14:20:00,
2013-01-08 06:25:00,50.3,50.3,30.24,SW,225,1.0,1.0,100,0.00,,,0.03,Wunderground v.1.15,2013-01-08 14:25:00,
2013-01-08 06:35:00,50.3,50.3,30.24,NW,315,0.0,0.0,100,0.00,,,0.03,Wunderground v.1.15,2013-01-08 14:35:00,
2013-01-08 06:40:00,50.3,50.3,30.24,NW,321,1.0,1.0,100,0.00,,,0.03,Wunderground v.1.15,2013-01-08 14:40:00,
2013-01-08 06:45:00,50.4,50.4,30.24,NW,312,0.0,1.0,100,0.00,,,0.03,Wunderground v.1.15,2013-01-08 14:45:00,
2013-01-08 06:50:00,50.4,50.4,30.24,NW,312,0.0,0.0,100,0.00,,,0.03,Wunderground v.1.15,2013-01-08 14:50:00,
2013-01-08 06:55:00,50.4,50.4,30.25,NNE,16,1.0,1.0,100,0.00,,,0.03,Wunderground v.1.15,2013-01-08 14:55:00,
2013-01-08 07:05:00,50.4,50.4,30.25,WNW,293,1.0,1.0,100,0.00,,,0.03,Wunderground v.1.15,2013-01-08 15:05:00,
2013-01-08 07:10:00,50.4,50.4,30.25,NNE,16,1.0,1.0,100,0.00,,,0.04,Wunderground v.1.15,2013-01-08 15:10:00,
2013-01-08 14:45:00,51.0,51.0,30.18,WNW,290,1.0,1.0,100,0.00,,,0.04,Wunderground v.1.15,2013-01-08 22:45:00,
2013-01-08 14:55:00,51.0,51.0,30.19,NNW,332,1.0,1.0,100,0.00,,,0.04,Wunderground v.1.15,2013-01-08 22:55:00,
2013-01-08 15:05:00,51.0,51.0,30.19,WNW,300,1.0,1.0,100,0.00,,,0.04,Wunderground v.1.15,2013-01-08 23:05:00,
2013-01-08 15:10:00,51.0,51.0,30.18,West,267,1.0,1.0,100,0.00,,,0.04,Wunderground v.1.15,2013-01-08 23:10:00,
2013-01-08 15:20:00,50.9,50.9,30.17,NNW,331,1.0,1.0,100,0.00,,,0.04,Wunderground v.1.15,2013-01-08 23:20:00,
2013-01-08 15:25:00,50.8,50.8,30.18,NW,314,0.0,1.0,100,0.00,,,0.04,Wunderground v.1.15,2013-01-08 23:25:00,
2013-01-08 15:35:00,50.8,50.8,30.18,NW,312,1.0,1.0,100,0.00,,,0.04,Wunderground v.1.15,2013-01-08 23:35:00,
2013-01-08 15:40:00,50.8,50.8,30.17,NNW,332,1.0,1.0,100,0.00,,,0.04,Wunderground v.1.15,2013-01-08 23:40:00,
2013-01-08 15:45:00,50.8,50.8,30.17,West,280,1.0,1.0,100,0.00,,,0.04,Wunderground v.1.15,2013-01-08 23:45:00,
2013-01-08 15:50:00,50.8,50.8,30.17,North,8,1.0,1.0,100,0.00,,,0.04,Wunderground v.1.15,2013-01-08 23:50:00,
2013-01-08 16:00:00,50.7,50.7,30.16,NW,323,1.0,1.0,100,0.00,,,0.04,Wunderground v.1.15,2013-01-09 00:00:00,
2013-01-08 16:05:00,50.7,50.7,30.17,North,4,0.0,1.0,100,0.00,,,0.04,Wunderground v.1.15,2013-01-09 00:05:00,
2013-01-08 16:10:00,50.6,50.6,30.17,NNW,345,0.0,1.0,100,0.00,,,0.04,Wunderground v.1.15,2013-01-09 00:10:00,
2013-01-08 16:20:00,50.6,50.6,30.16,WNW,296,1.0,2.0,100,0.00,,,0.04,Wunderground v.1.15,2013-01-09 00:20:00,
2013-01-08 16:25:00,50.5,50.5,30.16,NW,317,1.0,2.0,100,0.00,,,0.04,Wunderground v.1.15,2013-01-09 00:25:00,
2013-01-08 16:35:00,50.5,50.2,30.14,WNW,300,1.0,2.0,99,0.00,,,0.04,Wunderground v.1.15,2013-01-09 00:35:00,
2013-01-08 16:40:00,50.4,50.1,30.14,NW,323,1.0,1.0,99,0.00,,,0.04,Wunderground v.1.15,2013-01-09 00:40:00,
2013-01-08 16:45:00,50.3,50.0,30.14,NNE,27,1.0,4.0,99,0.00,,,0.04,Wunderground v.1.15,2013-01-09 00:45:00,
2013-01-08 16:55:00,50.1,49.8,30.13,NW,317,1.0,1.0,99,0.00,,,0.04,Wunderground v.1.15,2013-01-09 00:55:00,
2013-01-08 17:00:00,50.1,49.8,30.12,NNW,327,1.0,1.0,99,0.00,,,0.04,Wunderground v.1.15,2013-01-09 01:00:00,
2013-01-08 17:05:00,50.1,49.8,30.12,WSW,252,1.0,1.0,99,0.00,,,0.04,Wunderground v.1.15,2013-01-09 01:05:00,
2013-01-08 17:10:00,50.1,49.8,30.11,West,279,1.0,1.0,99,0.00,,,0.04,Wunderground v.1.15,2013-01-09 01:10:00,
2013-01-08 17:20:00,50.0,49.7,30.10,WNW,299,1.0,1.0,99,0.00,,,0.04,Wunderground v.1.15,2013-01-09 01:20:00,
2013-01-08 17:30:00,49.9,49.6,30.10,NNW,330,0.0,1.0,99,0.00,,,0.04,Wunderground v.1.15,2013-01-09 01:30:00,
2013-01-08 17:35:00,49.9,49.6,30.10,NW,321,1.0,1.0,99,0.00,,,0.04,Wunderground v.1.15,2013-01-09 01:35:00,
2013-01-08 17:40:00,49.8,49.5,30.10,South,172,1.0,1.0,99,0.00,,,0.04,Wunderground v.1.15,2013-01-09 01:40:00,
2013-01-08 17:50:00,49.7,49.4,30.09,WNW,292,1.0,1.0,99,0.00,,,0.04,Wunderground v.1.15,2013-01-09 01:50:00,
2013-01-08 17:55:00,49.7,49.4,30.09,South,186,0.0,1.0,99,0.00,,,0.04,Wunderground v.1.15,2013-01-09 01:55:00,
2013-01-08 18:05:00,49.6,49.3,30.09,SSE,165,1.0,2.0,99,0.00,,,0.04,Wunderground v.1.15,2013-01-09 02:05:00,
2013-01-08 18:10:00,49.6,49.3,30.09,West,281,1.0,1.0,99,0.00,,,0.04,Wunderground v.1.15,2013-01-09 02:10:00,
2013-01-08 18:20:00,49.6,49.3,30.08,WSW,248,0.0,0.0,99,0.00,,,0.04,Wunderground v.1.15,2013-01-09 02:20:00,
2013-01-08 18:25:00,49.5,49.2,30.08,NNW,328,0.0,2.0,99,0.00,,,0.04,Wunderground v.1.15,2013-01-09 02:25:00,
2013-01-08 18:30:00,49.5,49.2,30.08,WNW,283,0.0,1.0,99,0.00,,,0.04,Wunderground v.1.15,2013-01-09 02:30:00,
2013-01-08 18:35:00,49.5,49.2,30.08,NNW,327,1.0,1.0,99,0.00,,,0.04,Wunderground v.1.15,2013-01-09 02:35:00,
2013-01-08 18:40:00,49.5,49.2,30.08,NNE,13,1.0,1.0,99,0.00,,,0.04,Wunderground v.1.15,2013-01-09 02:40:00,
2013-01-08 18:50:00,49.6,49.3,30.07,SSW,196,1.0,1.0,99,0.00,,,0.04,Wunderground v.1.15,2013-01-09 02:50:00,
2013-01-08 18:55:00,49.7,49.4,30.07,NW,326,1.0,1.0,99,0.00,,,0.04,Wunderground v.1.15,2013-01-09 02:55:00,
2013-01-08 19:00:00,49.7,49.4,30.06,North,356,1.0,1.0,99,0.00,,,0.04,Wunderground v.1.15,2013-01-09 03:00:00,
2013-01-08 19:10:00,49.6,49.3,30.06,NNW,327,1.0,1.0,99,0.00,,,0.04,Wunderground v.1.15,2013-01-09 03:10:00,
2013-01-08 19:15:00,49.6,49.3,30.06,WSW,240,1.0,1.0,99,0.00,,,0.04,Wunderground v.1.15,2013-01-09 03:15:00,
2013-01-08 19:25:00,49.9,49.4,30.06,NW,323,1.0,3.0,98,0.00,,,0.04,Wunderground v.1.15,2013-01-09 03:25:00,
2013-01-08 19:30:00,49.9,49.4,30.06,NW,321,2.0,2.0,98,0.00,,,0.04,Wunderground v.1.15,2013-01-09 03:30:00,
2013-01-08 19:35:00,49.9,49.1,30.06,NW,309,2.0,2.0,97,0.00,,,0.04,Wunderground v.1.15,2013-01-09 03:35:00,
2013-01-08 19:40:00,50.0,49.2,30.06,WSW,241,2.0,2.0,97,0.00,,,0.04,Wunderground v.1.15,2013-01-09 03:40:00,
2013-01-08 19:50:00,50.2,49.4,30.05,West,263,2.0,2.0,97,0.00,,,0.04,Wunderground v.1.15,2013-01-09 03:50:00,
2013-01-08 19:55:00,50.2,49.4,30.06,West,278,1.0,2.0,97,0.00,,,0.04,Wunderground v.1.15,2013-01-09 03:55:00,
2013-01-08 20:00:00,50.1,49.3,30.05,WSW,245,1.0,1.0,97,0.00,,,0.04,Wunderground v.1.15,2013-01-09 04:00:00,
2013-01-08 20:05:00,50.1,49.3,30.04,WNW,302,1.0,3.0,97,0.00,,,0.04,Wunderground v.1.15,2013-01-09 04:05:00,
2013-01-08 20:15:00,49.8,49.0,30.04,NW,314,1.0,1.0,97,0.00,,,0.04,Wunderground v.1.15,2013-01-09 04:15:00,
2013-01-08 20:20:00,49.6,48.8,30.04,WNW,298,1.0,1.0,97,0.00,,,0.04,Wunderground v.1.15,2013-01-09 04:20:00,
2013-01-08 20:25:00,49.6,48.8,30.04,NNW,339,1.0,2.0,97,0.00,,,0.04,Wunderground v.1.15,2013-01-09 04:25:00,
2013-01-08 20:30:00,49.6,48.8,30.05,NW,322,2.0,2.0,97,0.00,,,0.04,Wunderground v.1.15,2013-01-09 04:30:00,
2013-01-08 20:40:00,49.5,48.7,30.05,North,8,1.0,4.0,97,0.00,,,0.04,Wunderground v.1.15,2013-01-09 04:40:00,
2013-01-08 20:45:00,49.5,48.7,30.05,WSW,252,1.0,4.0,97,0.00,,,0.04,Wunderground v.1.15,2013-01-09 04:45:00,
2013-01-08 20:50:00,49.5,48.7,30.05,NW,306,1.0,3.0,97,0.00,,,0.04,Wunderground v.1.15,2013-01-09 04:50:00,
2013-01-08 20:55:00,49.6,48.8,30.05,WNW,300,2.0,3.0,97,0.00,,,0.04,Wunderground v.1.15,2013-01-09 04:55:00,
2013-01-08 21:05:00,49.6,49.1,30.04,NW,317,1.0,3.0,98,0.00,,,0.04,Wunderground v.1.15,2013-01-09 05:05:00,
2013-01-08 21:10:00,49.6,49.1,30.04,WNW,289,1.0,1.0,98,0.00,,,0.04,Wunderground v.1.15,2013-01-09 05:10:00,
2013-01-08 21:15:00,49.7,49.2,30.04,ENE,62,1.0,1.0,98,0.00,,,0.04,Wunderground v.1.15,2013-01-09 05:15:00,
2013-01-08 21:20:00,49.8,49.0,30.04,WNW,297,1.0,2.0,97,0.00,,,0.04,Wunderground v.1.15,2013-01-09 05:20:00,
2013-01-08 21:25:00,49.8,49.3,30.05,WNW,290,1.0,2.0,98,0.00,,,0.04,Wunderground v.1.15,2013-01-09 05:25:00,
2013-01-08 21:30:00,49.8,49.3,30.05,NNW,327,1.0,4.0,98,0.00,,,0.04,Wunderground v.1.15,2013-01-09 05:30:00,
2013-01-08 21:35:00,49.9,49.4,30.04,NNW,344,1.0,4.0,98,0.00,,,0.04,Wunderground v.1.15,2013-01-09 05:35:00,
2013-01-08 21:40:00,49.9,49.4,30.05,WNW,295,1.0,1.0,98,0.00,,,0.04,Wunderground v.1.15,2013-01-09 05:40:00,
2013-01-08 21:50:00,49.8,49.3,30.05,NW,311,1.0,2.0,98,0.00,,,0.04,Wunderground v.1.15,2013-01-09 05:50:00,
2013-01-08 21:55:00,49.9,49.4,30.05,NW,313,1.0,2.0,98,0.00,,,0.04,Wunderground v.1.15,2013-01-09 05:55:00,
2013-01-08 22:00:00,50.0,49.5,30.05,WSW,242,1.0,1.0,98,0.00,,,0.04,Wunderground v.1.15,2013-01-09 06:00:00,
2013-01-08 22:10:00,50.1,49.6,30.04,NW,325,1.0,1.0,98,0.00,,,0.04,Wunderground v.1.15,2013-01-09 06:10:00,
2013-01-08 22:15:00,50.1,49.6,30.05,NW,304,1.0,1.0,98,0.00,,,0.04,Wunderground v.1.15,2013-01-09 06:15:00,
2013-01-08 22:20:00,50.1,49.6,30.05,SW,214,1.0,1.0,98,0.00,,,0.04,Wunderground v.1.15,2013-01-09 06:20:00,
2013-01-08 22:25:00,50.2,49.7,30.05,SW,230,1.0,1.0,98,0.00,,,0.04,Wunderground v.1.15,2013-01-09 06:25:00,
2013-01-08 22:30:00,50.3,49.8,30.05,NW,316,1.0,2.0,98,0.00,,,0.04,Wunderground v.1.15,2013-01-09 06:30:00,
2013-01-08 22:40:00,50.4,49.9,30.05,NNE,26,2.0,2.0,98,0.00,,,0.04,Wunderground v.1.15,2013-01-09 06:40:00,
2013-01-08 22:45:00,50.4,49.9,30.05,NW,323,1.0,2.0,98,0.00,,,0.04,Wunderground v.1.15,2013-01-09 06:45:00,
2013-01-08 22:50:00,50.3,49.8,30.04,WNW,285,1.0,1.0,98,0.00,,,0.04,Wunderground v.1.15,2013-01-09 06:50:00,
2013-01-08 22:55:00,50.3,49.8,30.04,NW,309,1.0,1.0,98,0.00,,,0.04,Wunderground v.1.15,2013-01-09 06:55:00,
2013-01-08 23:05:00,50.4,49.9,30.03,SSE,147,1.0,1.0,98,0.00,,,0.04,Wunderground v.1.15,2013-01-09 07:05:00,
2013-01-08 23:10:00,50.4,49.9,30.04,WSW,247,1.0,1.0,98,0.00,,,0.04,Wunderground v.1.15,2013-01-09 07:10:00,
2013-01-08 23:15:00,50.4,49.9,30.05,NW,315,1.0,1.0,98,0.00,,,0.04,Wunderground v.1.15,2013-01-09 07:15:00,
2013-01-08 23:20:00,50.5,50.0,30.05,SW,218,1.0,1.0,98,0.00,,,0.04,Wunderground v.1.15,2013-01-09 07:20:00,
2013-01-08 23:25:00,50.5,50.0,30.03,WSW,249,1.0,2.0,98,0.00,,,0.04,Wunderground v.1.15,2013-01-09 07:25:00,
2013-01-08 23:35:00,50.4,50.1,30.02,WNW,288,2.0,2.0,99,0.00,,,0.04,Wunderground v.1.15,2013-01-09 07:35:00,
2013-01-08 23:40:00,50.4,50.1,30.02,NW,320,2.0,2.0,99,0.00,,,0.04,Wunderground v.1.15,2013-01-09 07:40:00,
2013-01-08 23:45:00,50.4,50.1,30.02,NNW,344,1.0,2.0,99,0.00,,,0.04,Wunderground v.1.15,2013-01-09 07:45:00,
2013-01-08 23:50:00,50.4,50.1,30.01,SW,224,2.0,2.0,99,0.00,,,0.04,Wunderground v.1.15,2013-01-09 07:50:00,